"Pseudo-MPEC" for P115zVi

Created 2020 Sep 24 19:07:16 UT using Find_Orb

Click here for an explanation of pseudo-MPECs

 
 Astrometry: 
     P115zVi  C2020 09 12pKI6vP:x3SBv8qPS.Y)yh?Astrometryi*-Lredacted;n_hd7T`F51
     P115zVi  C2020 09 12An^UGZ+:SVj,clickd#6dk/-PJdcD(N[\4W+M2,-=F:sj!8nhereF51
     P115zVi  C2020 09 12kV_c5pglZ+6YLRG)]Noj\fjP9[QQ)BforaBBK2llexplanation$F51

Station data:
(F51) Pan-STARRS 1, Haleakala  (N20.707235 W156.255910)  US/Hawaii.
   Observers N. Primak, A. Schultz, S. Watters, J. Thiel, T. Goggia. Measurer
   PS1 Science Consortium. 1.8-m Ritchey-Chrétien + CCD.

Orbital elements:  P115zVi
   Perihelion 2020 Aug 18.069881 +/- 43.4 TT =  1:40:37 (JD 2459079.569881)
Epoch 2020 Sep 12.0 TT = JDT 2459104.5   Earth MOID: 0.0174   AutoNEOCP
M  22.49993515 +/- 24               (J2000 ecliptic)
n   0.90252015 +/- 0.413            Peri.  156.76767 +/- 60
a   1.06046931 +/- 0.323            Node   168.29111 +/- 30
e   0.0358702 +/- 0.262             Incl.    4.31657 +/- 11
P   1.09/398.88d           H 29.4   G  0.15   U 12.1  SR
q 1.02242997 +/- 0.221    Q 1.09850866 +/- 33.1
From 3 observations 2020 Sept. 12 (48.0 min); mean residual 0".04
Residuals in arcseconds: 
200912 F51  .02+  .02+    200912 F51  .05-  .07-    200912 F51  .04+  .05+    

Ephemerides (geocentric):
Date (UTC) HH   RA              Dec         delta   r     elong  mag " sig PA
---- -- -- --  -------------   -----------  ------ ------ -----  --- ---- ---
2020 09 24 19  00 04 29.995   -35 46 48.82  .03253 1.0293 143.5 23.4  48d 175
2020 09 24 20  00 04 41.159   -35 48 57.98  .03258 1.0293 143.4 23.4  48d 175
2020 09 24 21  00 04 52.298   -35 51 06.50  .03264 1.0293 143.4 23.4  48d 175
2020 09 24 22  00 05 03.412   -35 53 14.39  .03269 1.0293 143.3 23.5  48d 175
2020 09 24 23  00 05 14.502   -35 55 21.66  .03274 1.0293 143.3 23.5  48d 175
2020 09 25 00  00 05 25.567   -35 57 28.30  .03280 1.0293 143.2 23.5  48d 175
2020 09 25 01  00 05 36.607   -35 59 34.31  .03285 1.0294 143.1 23.5  48d 175
2020 09 25 02  00 05 47.623   -36 01 39.71  .03290 1.0294 143.1 23.5  48d 175
2020 09 25 03  00 05 58.614   -36 03 44.48  .03296 1.0294 143.0 23.5  48d 175
2020 09 25 04  00 06 09.581   -36 05 48.65  .03301 1.0294 143.0 23.5  48d 175
2020 09 25 05  00 06 20.523   -36 07 52.20  .03306 1.0294 142.9 23.5  48d 175
2020 09 25 06  00 06 31.441   -36 09 55.14  .03312 1.0294 142.9 23.5  48d 175
2020 09 25 07  00 06 42.334   -36 11 57.47  .03317 1.0294 142.8 23.5  48d 175
2020 09 25 08  00 06 53.204   -36 13 59.20  .03322 1.0295 142.8 23.5  48d 175
2020 09 25 09  00 07 04.048   -36 16 00.33  .03328 1.0295 142.7 23.5  48d 175
2020 09 25 10  00 07 14.869   -36 18 00.85  .03333 1.0295 142.7 23.5  48d 175
2020 09 25 11  00 07 25.666   -36 20 00.78  .03339 1.0295 142.6 23.5  48d 175
2020 09 25 12  00 07 36.438   -36 22 00.12  .03344 1.0295 142.6 23.5  48d 175
2020 09 25 13  00 07 47.186   -36 23 58.86  .03349 1.0295 142.5 23.5  48d 175
2020 09 25 14  00 07 57.910   -36 25 57.02  .03355 1.0295 142.5 23.5  48d 175
2020 09 25 15  00 08 08.611   -36 27 54.59  .03360 1.0296 142.5 23.5  48d 175
2020 09 25 16  00 08 19.287   -36 29 51.57  .03366 1.0296 142.4 23.5  48d 175
2020 09 25 17  00 08 29.939   -36 31 47.98  .03371 1.0296 142.4 23.5  48d 175
2020 09 25 18  00 08 40.568   -36 33 43.80  .03376 1.0296 142.3 23.6  48d 175
2020 09 25 19  00 08 51.172   -36 35 39.05  .03382 1.0296 142.3 23.6  48d 175
2020 09 25 20  00 09 01.753   -36 37 33.72  .03387 1.0296 142.2 23.6  48d 175
2020 09 25 21  00 09 12.311   -36 39 27.83  .03393 1.0296 142.2 23.6  48d 175
2020 09 25 22  00 09 22.844   -36 41 21.36  .03398 1.0297 142.1 23.6  48d 175
2020 09 25 23  00 09 33.354   -36 43 14.33  .03403 1.0297 142.1 23.6  48d 175
2020 09 26 00  00 09 43.840   -36 45 06.73  .03409 1.0297 142.0 23.6  48d 175
2020 09 26 01  00 09 54.303   -36 46 58.57  .03414 1.0297 142.0 23.6  48d 175
2020 09 26 02  00 10 04.742   -36 48 49.85  .03420 1.0297 141.9 23.6  48d 175
2020 09 26 03  00 10 15.158   -36 50 40.57  .03425 1.0297 141.9 23.6  48d 175
2020 09 26 04  00 10 25.550   -36 52 30.74  .03431 1.0297 141.8 23.6  48d 175
2020 09 26 05  00 10 35.919   -36 54 20.36  .03436 1.0298 141.8 23.6  48d 175
2020 09 26 06  00 10 46.265   -36 56 09.42  .03441 1.0298 141.7 23.6  48d 175
2020 09 26 07  00 10 56.588   -36 57 57.94  .03447 1.0298 141.7 23.6  48d 175
2020 09 26 08  00 11 06.887   -36 59 45.91  .03452 1.0298 141.6 23.6  48d 175
2020 09 26 09  00 11 17.163   -37 01 33.34  .03458 1.0298 141.6 23.6  48d 175
2020 09 26 10  00 11 27.416   -37 03 20.23  .03463 1.0298 141.6 23.6  48d 175
2020 09 26 11  00 11 37.645   -37 05 06.58  .03469 1.0298 141.5 23.6  48d 175
2020 09 26 12  00 11 47.852   -37 06 52.40  .03474 1.0299 141.5 23.6  48d 175
2020 09 26 13  00 11 58.036   -37 08 37.68  .03480 1.0299 141.4 23.6  48d 175
2020 09 26 14  00 12 08.197   -37 10 22.43  .03485 1.0299 141.4 23.6  47d 170
2020 09 26 15  00 12 18.334   -37 12 06.65  .03491 1.0299 141.3 23.6  47d 170
2020 09 26 16  00 12 28.449   -37 13 50.34  .03496 1.0299 141.3 23.7  47d 170
2020 09 26 17  00 12 38.542   -37 15 33.51  .03502 1.0299 141.2 23.7  47d 170
2020 09 26 18  00 12 48.611   -37 17 16.16  .03507 1.0299 141.2 23.7  47d 170